Location: Newark
(13.6797°N, 8.5297°E)
Time: 18:40:17
(UTC+00:00)

Altair - Pass Details

Date: 02 February 2020
Orbit: 1502 x 1682 km, 47.2° (Epoch: 25 February)

Event Time Altitude Azimuth Distance (km) Brightness Sun altitude
Rises 14:56:21 0° 304° (NW) 4,902 10.4 32.6°
Reaches altitude 10° 14:59:49 10° 297° (WNW) 3,896 10.2 31.9°
Maximum altitude 15:08:43 38° 233° (SW) 2,286 10.8 30.0°
Drops below altitude 10° 15:17:23 10° 168° (SSE) 3,769 9.8 28.2°
Sets 15:20:43 0° 160° (SSE) 4,727 10.2 27.4°
